[[{"header":{"parameterUnit":"m.s-1","parameterCategory":2,"la1":30.2991,"la2":30.254,"lo1":-89.0895,"lo2":-89.0444,"dy":0.0017,"dx":0.0017,"nx":28,"ny":28,"refTime":"2025-02-24T03:00:00:Z","depth":"0","parameterNumber":2,"parameterNumberName":"U-component_of_CURRENTS"},"data":[0,0,0,0,0,0,0,0,0,0,0,0,0,0,0,0,0,0,0,0,0,0,0,0,0,0,0,0,0,0,0,0,0,0,0,0,0,0,0,0,0,0,0,0,0,0,0,0,0,0,0,0,0,0,0,0,0,0,-0.2087,-0.209,0,-0.2281,-0.2282,-0.2284,-0.2297,-0.2296,-0.2294,-0.2292,-0.2403,-0.2408,-0.2412,0,0,0,0,0,0,0,0,0,0,0,0,0,-0.1779,-0.1784,-0.2087,-0.209,-0.2093,-0.228,-0.2282,-0.2285,-0.2298,-0.2296,-0.2294,-0.2292,-0.2402,-0.2407,-0.2413,0,0,0,0,0,0,0,0,0,0,0,0,0,-0.1931,-0.1785,-0.2086,-0.2126,-0.2132,-0.228,-0.2282,-0.2285,-0.2298,-0.2296,-0.2293,-0.2291,-0.24,-0.2407,-0.2413,-0.2505,0,0,-0.2434,-0.2437,0,0,0,0,0,0,0,0,-0.1922,-0.1942,-0.2117,-0.2124,-0.213,-0.2267,-0.2215,-0.2356,-0.2299,-0.2229,-0.2292,-0.229,-0.2356,-0.2366,-0.2401,-0.251,-0.2515,-0.2435,-0.2439,-0.2442,-0.2444,0,0,0,0,0,0,0,-0.1912,-0.1934,-0.2158,-0.2121,-0.2129,-0.2152,-0.217,-0.2242,-0.2298,-0.2235,-0.2238,-0.2269,-0.2358,-0.2395,-0.2404,-0.2516,-0.2434,-0.244,-0.2445,-0.2447,-0.2673,-0.2675,0,0,0,0,0,0,-0.1901,-0.1925,-0.2152,-0.2164,-0.2025,-0.216,-0.2179,-0.2221,-0.2299,-0.2311,-0.2271,-0.2269,-0.2384,-0.2396,-0.2408,-0.2512,-0.2442,-0.2448,-0.2452,-0.2671,-0.2673,-0.2675,0,0,0,0,0,0,-0.1893,-0.1919,-0.2144,-0.2052,-0.2082,-0.2168,-0.2215,-0.2226,-0.2261,-0.2329,-0.2337,-0.2293,-0.2383,-0.2398,-0.2492,-0.2516,-0.2451,-0.2457,-0.2668,-0.2672,-0.2674,-0.2726,0,0,0,0,0,0,-0.1884,-0.1916,-0.1933,-0.2052,-0.2088,-0.2236,-0.2218,-0.2232,-0.2287,-0.2286,-0.2351,-0.2359,-0.2382,-0.2482,-0.2499,-0.2524,-0.2462,-0.2666,-0.267,-0.2673,-0.2722,-0.2731,-0.2738,0,0,0,0,0,-0.1872,-0.193,-0.1933,-0.1961,-0.2112,-0.2239,-0.2259,-0.2306,-0.229,-0.2322,-0.2372,-0.2356,-0.2515,-0.2491,-0.251,-0.2537,-0.2664,-0.2669,-0.2673,-0.2719,-0.2729,-0.2738,0,0,0,0,0,0,-0.1817,-0.1941,-0.1946,-0.2038,-0.2124,-0.2242,-0.229,-0.2313,-0.2381,-0.2374,-0.2411,-0.2426,-0.2505,-0.2526,-0.2498,-0.261,-0.2576,-0.2584,-0.2604,-0.2614,-0.2622,-0.2607,-0.2468,0,0,0,0,0,-0.181,-0.187,-0.199,-0.2055,-0.2107,-0.2191,-0.2243,-0.2278,-0.236,-0.2386,-0.2431,-0.248,-0.2544,-0.2581,-0.2634,-0.2723,-0.266,-0.2743,-0.275,-0.2757,-0.2757,-0.2686,-0.2686,-0.269,-0.269,-0.2689,0,0,-0.1797,-0.188,-0.1907,-0.2044,-0.2116,-0.2209,-0.2216,-0.231,-0.2373,-0.2391,-0.2481,-0.2515,-0.2573,-0.266,-0.2695,-0.2679,-0.2721,-0.2763,-0.2768,-0.2764,-0.2691,-0.269,-0.2689,-0.2693,-0.2692,-0.2692,0,0,-0.1837,-0.1889,-0.1961,-0.2041,-0.2162,-0.2221,-0.2246,-0.2364,-0.2401,-0.2507,-0.2519,-0.2574,-0.2683,-0.2722,-0.2759,-0.2848,-0.2761,-0.2853,-0.2891,-0.2823,-0.2821,-0.2819,-0.2714,-0.2702,-0.286,-0.286,-0.286,0,-0.1816,-0.1923,-0.1999,-0.2103,-0.2162,-0.2226,-0.231,-0.2385,-0.2504,-0.2531,-0.2536,-0.2651,-0.2712,-0.2792,-0.2839,-0.2864,-0.2789,-0.2851,-0.2829,-0.2825,-0.2822,-0.2716,-0.2701,-0.2863,-0.2863,-0.2863,-0.2862,0,-0.1922,-0.1996,-0.2057,-0.2186,-0.226,-0.2345,-0.2453,-0.2506,-0.2543,-0.2596,-0.2667,-0.2742,-0.2791,-0.2829,-0.2887,-0.2903,-0.2843,-0.2838,-0.2794,-0.2824,-0.2711,-0.2695,-0.2868,-0.2867,-0.2866,-0.2865,0,0,-0.189,-0.2086,-0.2099,-0.215,-0.2301,-0.2369,-0.2474,-0.2573,-0.2587,-0.2689,-0.271,-0.2857,-0.2844,-0.2885,-0.2921,-0.2906,-0.2848,-0.288,-0.2874,-0.2757,-0.2649,-0.2492,-0.2459,-0.282,-0.2819,-0.2817,-0.257,0,-0.1937,-0.2103,-0.2192,-0.2305,-0.2387,-0.246,-0.2539,-0.2621,-0.2661,-0.2696,-0.2766,-0.2802,-0.288,-0.2878,-0.2889,-0.2868,-0.2812,-0.2913,-0.2655,-0.2647,-0.2488,-0.2438,-0.2286,-0.2043,-0.2554,-0.2551,-0.2549,0,-0.2002,-0.2097,-0.2225,-0.2335,-0.2375,-0.2437,-0.2493,-0.2576,-0.2646,-0.2671,-0.2708,-0.2734,-0.2792,-0.2811,-0.2759,-0.281,-0.2737,-0.2698,-0.2686,-0.251,-0.2461,-0.2104,-0.1994,-0.1984,-0.2523,-0.2525,-0.2527,0,-0.193,-0.2102,-0.2183,-0.2235,-0.2388,-0.2418,-0.2476,-0.2547,-0.2575,-0.2621,-0.2588,-0.2659,-0.2637,-0.2615,-0.2591,-0.2654,-0.2455,-0.2514,-0.228,-0.2266,-0.2072,-0.2044,-0.1905,-0.2398,-0.2398,-0.2399,-0.24,0,-0.1946,-0.1997,-0.2143,-0.2193,-0.2229,-0.2356,-0.2366,-0.2426,-0.2469,-0.2445,-0.2547,-0.2482,-0.2578,-0.2499,-0.2508,-0.2323,-0.2367,-0.2252,-0.2185,-0.2085,-0.2062,-0.1994,-0.2043,-0.239,-0.2392,-0.2394,-0.2395,0,-0.1861,-0.1976,-0.2057,-0.2189,-0.2207,-0.2228,-0.2292,-0.2283,-0.2335,-0.2285,-0.229,-0.2321,-0.2204,-0.2225,-0.2138,-0.214,-0.1955,-0.193,-0.1793,-0.1716,-0.1535,-0.1593,-0.1359,-0.1333,-0.1649,-0.1644,-0.1639,0,-0.1832,-0.1875,-0.2003,-0.2014,-0.2064,-0.2101,-0.2104,-0.2199,-0.2176,-0.2148,-0.2095,-0.1991,-0.188,-0.1704,-0.1652,-0.1538,-0.1633,-0.1354,-0.1474,-0.1463,-0.148,-0.1554,-0.156,-0.1228,-0.122,-0.1214,-0.1209,0,-0.1728,-0.178,-0.1842,-0.1875,-0.1885,-0.1904,-0.1914,-0.1879,-0.1941,-0.1882,-0.1749,-0.1658,-0.1454,-0.1272,-0.114,-0.1099,-0.1309,-0.1219,-0.1242,-0.1151,-0.1185,-0.1148,-0.1452,-0.1154,-0.1159,-0.1163,-0.1166,-0.1169,-0.1599,-0.1601,-0.1671,-0.1686,-0.1705,-0.1673,-0.1615,-0.1614,-0.1545,-0.1413,-0.1418,-0.1209,-0.1044,-0.0823,-0.0773,-0.064,-0.0808,-0.0676,-0.0744,-0.0818,-0.0806,-0.0967,-0.0588,-0.059,-0.0592,-0.0594,-0.0596,0,-0.141,-0.1431,-0.1454,-0.1471,-0.1424,-0.1499,-0.1448,-0.1359,-0.1202,-0.1108,-0.0971,-0.0708,-0.0499,-0.0412,-0.0247,-0.0218,-0.0302,-0.0257,-0.0369,-0.0403,-0.0531,-0.053,-0.0077,-0.0077,-0.0077,-0.0077,-0.0077,-0.0078,-0.1306,-0.1256,-0.1288,-0.1166,-0.1171,-0.1051,-0.0987,-0.0896,-0.0808,-0.0563,-0.0396,-0.0308,-0.0212,-0.0092,-0.0008,-0.0009,-0.0122,-0.0042,-0.0184,-0.0329,-0.0377,-0.0424,-0.0434,0.0031,0.0031,-0.0014,-0.0014,-0.0014]},{"header":{"parameterUnit":"m.s-1","parameterCategory":2,"la1":30.2991,"la2":30.254,"lo1":-89.0895,"lo2":-89.0444,"dy":0.0017,"dx":0.0017,"nx":28,"ny":28,"refTime":"2025-02-24T03:00:00:Z","depth":"0","parameterNumber":3,"parameterNumberName":"V-component_of_CURRENTS"},"data":[0,0,0,0,0,0,0,0,0,0,0,0,0,0,0,0,0,0,0,0,0,0,0,0,0,0,0,0,0,0,0,0,0,0,0,0,0,0,0,0,0,0,0,0,0,0,0,0,0,0,0,0,0,0,0,0,0,0,-0.0696,-0.0696,0,-0.0628,-0.0627,-0.0625,-0.0538,-0.0537,-0.0537,-0.0536,-0.0385,-0.0382,-0.0379,0,0,0,0,0,0,0,0,0,0,0,0,0,-0.0629,-0.0631,-0.0696,-0.0696,-0.0696,-0.0628,-0.0627,-0.0625,-0.0538,-0.0537,-0.0536,-0.0536,-0.0386,-0.0382,-0.0378,0,0,0,0,0,0,0,0,0,0,0,0,0,-0.0613,-0.0632,-0.0696,-0.065,-0.0645,-0.0628,-0.0626,-0.0624,-0.0538,-0.0537,-0.0536,-0.0535,-0.0388,-0.0383,-0.0378,-0.037,0,0,-0.0363,-0.0361,0,0,0,0,0,0,0,0,-0.0614,-0.0615,-0.0657,-0.0653,-0.0648,-0.0597,-0.0548,-0.0538,-0.0539,-0.0572,-0.0536,-0.0535,-0.0454,-0.0443,-0.0424,-0.0363,-0.0356,-0.0362,-0.0359,-0.0357,-0.0356,0,0,0,0,0,0,0,-0.0616,-0.0617,-0.0662,-0.0657,-0.0652,-0.0591,-0.0587,-0.0545,-0.0513,-0.0569,-0.0564,-0.0568,-0.045,-0.0429,-0.042,-0.0354,-0.0362,-0.0358,-0.0355,-0.0353,-0.0261,-0.0262,0,0,0,0,0,0,-0.0647,-0.0619,-0.0664,-0.0661,-0.0636,-0.0594,-0.059,-0.0608,-0.0515,-0.0502,-0.0569,-0.0564,-0.0438,-0.0426,-0.0414,-0.0411,-0.0357,-0.0352,-0.035,-0.0261,-0.0262,-0.0262,0,0,0,0,0,0,-0.0646,-0.0652,-0.0667,-0.0642,-0.0641,-0.0598,-0.0618,-0.0608,-0.0588,-0.0517,-0.0501,-0.0561,-0.0437,-0.0421,-0.0381,-0.0404,-0.035,-0.0346,-0.026,-0.0261,-0.0262,-0.0397,0,0,0,0,0,0,-0.0644,-0.0652,-0.0665,-0.0645,-0.0644,-0.0672,-0.062,-0.0608,-0.0596,-0.0588,-0.0505,-0.049,-0.0435,-0.0389,-0.0376,-0.0396,-0.0342,-0.026,-0.0261,-0.0262,-0.0392,-0.0403,-0.0412,0,0,0,0,0,-0.0642,-0.068,-0.0667,-0.0672,-0.0668,-0.0674,-0.0667,-0.0625,-0.0597,-0.0599,-0.0539,-0.0492,-0.0386,-0.0385,-0.037,-0.039,-0.0259,-0.026,-0.0262,-0.0388,-0.0401,-0.0412,0,0,0,0,0,0,-0.0652,-0.0675,-0.066,-0.07,-0.0692,-0.0662,-0.0667,-0.0636,-0.059,-0.058,-0.05,-0.0482,-0.0452,-0.0402,-0.0403,-0.0364,-0.0314,-0.0313,-0.0416,-0.0427,-0.0437,-0.0454,-0.0338,0,0,0,0,0,-0.0665,-0.07,-0.0699,-0.0727,-0.0735,-0.07,-0.0693,-0.0669,-0.0634,-0.0612,-0.0556,-0.0494,-0.0446,-0.0423,-0.0369,-0.0355,-0.0301,-0.0355,-0.0365,-0.0374,-0.0376,-0.0328,-0.0334,-0.0266,-0.0266,-0.0266,0,0,-0.0669,-0.0693,-0.0705,-0.0732,-0.0723,-0.0742,-0.0692,-0.07,-0.0697,-0.0604,-0.0581,-0.0525,-0.0447,-0.0426,-0.0409,-0.0388,-0.0365,-0.0375,-0.0384,-0.0381,-0.033,-0.0337,-0.0343,-0.0267,-0.0267,-0.0267,0,0,-0.0722,-0.0729,-0.0781,-0.0788,-0.08,-0.0776,-0.0786,-0.0765,-0.0738,-0.0715,-0.0646,-0.0606,-0.0535,-0.0489,-0.0454,-0.0486,-0.0414,-0.0471,-0.0541,-0.0496,-0.0501,-0.0505,-0.0452,-0.045,-0.0482,-0.0482,-0.0482,0,-0.0724,-0.0794,-0.079,-0.0844,-0.0854,-0.0801,-0.0843,-0.0811,-0.077,-0.0754,-0.0724,-0.0624,-0.0563,-0.0532,-0.0545,-0.0509,-0.0469,-0.0509,-0.0511,-0.0514,-0.0516,-0.0459,-0.0456,-0.0489,-0.0488,-0.0487,-0.0487,0,-0.082,-0.0863,-0.0898,-0.0944,-0.095,-0.0978,-0.0949,-0.0932,-0.089,-0.0851,-0.0812,-0.0733,-0.0674,-0.0656,-0.061,-0.06,-0.0562,-0.0528,-0.0489,-0.0531,-0.0468,-0.0462,-0.0498,-0.0496,-0.0494,-0.0492,0,0,-0.0842,-0.0946,-0.0954,-0.0992,-0.1007,-0.1023,-0.1022,-0.1007,-0.0988,-0.0944,-0.0923,-0.0859,-0.0813,-0.0771,-0.0712,-0.0679,-0.0662,-0.0625,-0.062,-0.0586,-0.056,-0.0522,-0.051,-0.0637,-0.0636,-0.0636,-0.0513,0,-0.0909,-0.1041,-0.1061,-0.1133,-0.1186,-0.1145,-0.1147,-0.1118,-0.1058,-0.1015,-0.0945,-0.0894,-0.0857,-0.0827,-0.0797,-0.0675,-0.0651,-0.0697,-0.051,-0.0504,-0.0477,-0.0504,-0.0479,-0.0367,-0.0506,-0.0505,-0.0504,0,-0.0992,-0.1067,-0.1181,-0.1239,-0.1256,-0.1275,-0.1253,-0.1247,-0.1169,-0.1125,-0.1073,-0.099,-0.093,-0.0888,-0.0751,-0.0784,-0.0696,-0.0612,-0.0605,-0.0516,-0.0455,-0.0343,-0.0349,-0.0305,-0.0494,-0.0495,-0.0495,0,-0.1034,-0.1139,-0.1235,-0.1259,-0.1314,-0.1334,-0.1336,-0.1281,-0.1259,-0.1183,-0.1138,-0.106,-0.0983,-0.0892,-0.0724,-0.0738,-0.0554,-0.0541,-0.043,-0.0425,-0.0337,-0.0326,-0.0288,-0.0463,-0.0464,-0.0464,-0.0464,0,-0.1109,-0.1169,-0.1261,-0.1316,-0.1375,-0.1393,-0.1409,-0.1385,-0.1333,-0.1283,-0.1202,-0.1123,-0.0979,-0.0845,-0.0735,-0.0554,-0.0562,-0.0442,-0.0395,-0.0383,-0.0378,-0.028,-0.0275,-0.0459,-0.046,-0.0461,-0.0462,0,-0.1143,-0.1216,-0.1315,-0.1397,-0.141,-0.1451,-0.1462,-0.1447,-0.1404,-0.1328,-0.1306,-0.1153,-0.0969,-0.0816,-0.0613,-0.0537,-0.0344,-0.0323,-0.0317,-0.0272,-0.0155,-0.0158,-0.0069,-0.002,-0.0194,-0.0192,-0.0191,0,-0.117,-0.1241,-0.1366,-0.1404,-0.1442,-0.1487,-0.1493,-0.1483,-0.1443,-0.1322,-0.1271,-0.1091,-0.0924,-0.0635,-0.0462,-0.0269,-0.0242,-0.0151,-0.0184,-0.015,-0.0117,-0.0144,-0.0112,-0.0114,-0.0112,-0.0111,-0.0109,0,-0.1188,-0.1249,-0.1336,-0.1428,-0.1466,-0.1498,-0.15,-0.1478,-0.1418,-0.1337,-0.1172,-0.104,-0.0765,-0.0518,-0.0292,-0.0184,-0.0134,-0.0115,-0.0075,-0.0056,-0.0085,-0.0013,-0.0191,-0.0096,-0.0097,-0.0098,-0.0099,-0.0099,-0.1166,-0.1227,-0.1341,-0.1413,-0.146,-0.1458,-0.1433,-0.1397,-0.1319,-0.1137,-0.107,-0.0822,-0.0576,-0.0241,-0.0145,0.004,0.0001,0.0088,0.0084,0.0055,0.0083,-0.0072,0.0068,0.0068,0.0068,0.0067,0.0067,0,-0.1106,-0.119,-0.1286,-0.1366,-0.1385,-0.1422,-0.1382,-0.1307,-0.116,-0.1011,-0.0843,-0.0502,-0.0263,-0.0064,0.0163,0.0232,0.0225,0.0262,0.0226,0.0255,0.0138,0.012,0.0272,0.0272,0.0272,0.0272,0.0272,0.0272,-0.1079,-0.1148,-0.1217,-0.1241,-0.1281,-0.1229,-0.1179,-0.1077,-0.095,-0.0658,-0.0422,-0.027,-0.0003,0.0171,0.0347,0.0367,0.0401,0.0381,0.0413,0.0319,0.0301,0.0285,0.0269,0.045,0.045,0.0533,0.0534,0.0534]}],[{"header":{"parameterUnit":"m.s-1","parameterCategory":2,"la1":30.2991,"la2":30.254,"lo1":-89.0895,"lo2":-89.0444,"dy":0.0017,"dx":0.0017,"nx":28,"ny":28,"refTime":"2025-02-24T03:00:00:Z","depth":"2","parameterNumber":2,"parameterNumberName":"U-component_of_CURRENTS"},"data":[0,0,0,0,0,0,0,0,0,0,0,0,0,0,0,0,0,0,0,0,0,0,0,0,0,0,0,0,0,0,0,0,0,0,0,0,0,0,0,0,0,0,0,0,0,0,0,0,0,0,0,0,0,0,0,0,0,0,-0.1528,-0.1528,0,-0.1607,-0.1608,-0.1609,-0.1596,-0.1595,-0.1593,-0.1592,-0.1628,-0.1631,-0.1633,0,0,0,0,0,0,0,0,0,0,0,0,0,-0.1425,-0.1427,-0.1527,-0.1529,-0.153,-0.1607,-0.1608,-0.1609,-0.1596,-0.1594,-0.1593,-0.1591,-0.1628,-0.163,-0.1633,0,0,0,0,0,0,0,0,0,0,0,0,0,-0.1483,-0.1427,-0.1527,-0.1533,-0.1534,-0.1607,-0.1608,-0.1609,-0.1596,-0.1594,-0.1593,-0.1591,-0.1627,-0.163,-0.1633,-0.1692,0,0,-0.1643,-0.1645,0,0,0,0,0,0,0,0,-0.1479,-0.1486,-0.1531,-0.1533,-0.1535,-0.159,-0.1585,-0.1635,-0.1597,-0.1572,-0.1592,-0.159,-0.1614,-0.1618,-0.1637,-0.1694,-0.1696,-0.1644,-0.1646,-0.1647,-0.1648,0,0,0,0,0,0,0,-0.1475,-0.1483,-0.1558,-0.1533,-0.1535,-0.1553,-0.1558,-0.1595,-0.1601,-0.1574,-0.1574,-0.1584,-0.1614,-0.1634,-0.1637,-0.1696,-0.1643,-0.1646,-0.1648,-0.165,-0.1691,-0.169,0,0,0,0,0,0,-0.1467,-0.148,-0.1556,-0.1561,-0.1502,-0.1556,-0.1562,-0.1574,-0.1602,-0.1605,-0.1586,-0.1583,-0.1629,-0.1634,-0.1638,-0.1643,-0.1647,-0.165,-0.1652,-0.1692,-0.1691,-0.169,0,0,0,0,0,0,-0.1464,-0.1473,-0.1552,-0.1522,-0.1533,-0.1559,-0.1573,-0.1576,-0.1595,-0.1611,-0.1613,-0.16,-0.1628,-0.1634,-0.1661,-0.1646,-0.1651,-0.1654,-0.1693,-0.1691,-0.169,-0.1694,0,0,0,0,0,0,-0.1461,-0.1471,-0.1477,-0.1522,-0.1535,-0.1582,-0.1575,-0.1579,-0.1605,-0.1602,-0.1625,-0.1626,-0.1627,-0.1656,-0.1665,-0.1651,-0.1657,-0.1694,-0.1692,-0.1691,-0.1695,-0.1693,-0.1691,0,0,0,0,0,-0.1457,-0.1475,-0.1477,-0.1486,-0.1542,-0.1583,-0.1591,-0.1602,-0.1607,-0.1613,-0.1628,-0.1625,-0.165,-0.166,-0.1669,-0.1656,-0.1695,-0.1693,-0.1691,-0.1696,-0.1694,-0.1692,0,0,0,0,0,0,-0.1439,-0.1477,-0.148,-0.1509,-0.1536,-0.158,-0.1595,-0.1612,-0.1635,-0.1634,-0.1645,-0.1648,-0.1665,-0.1662,-0.1672,-0.1657,-0.1661,-0.1661,-0.1661,-0.1659,-0.1657,-0.1673,-0.166,0,0,0,0,0,-0.1439,-0.1456,-0.1493,-0.1516,-0.153,-0.1567,-0.1588,-0.16,-0.1628,-0.1636,-0.1656,-0.1662,-0.1668,-0.1664,-0.1682,-0.1692,-0.1669,-0.1676,-0.1675,-0.1673,-0.1689,-0.1667,-0.1666,-0.1683,-0.1683,-0.1683,0,0,-0.1439,-0.1463,-0.1472,-0.1513,-0.1538,-0.1572,-0.1574,-0.1609,-0.1636,-0.164,-0.1681,-0.1681,-0.1676,-0.1679,-0.1681,-0.1669,-0.1641,-0.1671,-0.167,-0.1686,-0.1665,-0.1664,-0.1663,-0.1682,-0.1682,-0.1683,0,0,-0.1452,-0.1469,-0.1486,-0.151,-0.1548,-0.1579,-0.159,-0.1638,-0.165,-0.1701,-0.1688,-0.1687,-0.1718,-0.1694,-0.1688,-0.1692,-0.1651,-0.1668,-0.1658,-0.1636,-0.1636,-0.1635,-0.1542,-0.1533,-0.1645,-0.1645,-0.1645,0,-0.145,-0.1474,-0.1498,-0.1523,-0.1538,-0.1584,-0.1605,-0.1645,-0.1695,-0.1687,-0.1712,-0.171,-0.1733,-0.1686,-0.1689,-0.1693,-0.1642,-0.167,-0.1636,-0.1635,-0.1634,-0.154,-0.153,-0.1645,-0.1645,-0.1645,-0.1645,0,-0.1474,-0.1492,-0.1508,-0.155,-0.1573,-0.1601,-0.1648,-0.1658,-0.1694,-0.1725,-0.1714,-0.1733,-0.1712,-0.1706,-0.172,-0.1682,-0.1632,-0.1656,-0.1647,-0.1633,-0.1533,-0.1523,-0.1645,-0.1645,-0.1645,-0.1645,0,0,-0.147,-0.1513,-0.1517,-0.1519,-0.1581,-0.1598,-0.1628,-0.1647,-0.1656,-0.1694,-0.1679,-0.1705,-0.1699,-0.1691,-0.1666,-0.1654,-0.1614,-0.1651,-0.165,-0.1567,-0.1496,-0.1395,-0.1373,-0.1622,-0.1622,-0.1622,-0.1406,0,-0.1476,-0.1502,-0.1531,-0.1557,-0.1568,-0.1587,-0.1611,-0.163,-0.1671,-0.1679,-0.1661,-0.1683,-0.1694,-0.168,-0.1665,-0.165,-0.1595,-0.1666,-0.1516,-0.151,-0.1432,-0.1363,-0.1275,-0.1072,-0.1396,-0.1394,-0.1393,0,-0.1482,-0.1494,-0.1513,-0.1519,-0.1525,-0.1558,-0.1552,-0.1582,-0.1597,-0.1611,-0.1593,-0.1629,-0.1597,-0.1641,-0.1555,-0.1589,-0.1547,-0.1526,-0.1517,-0.1427,-0.1393,-0.115,-0.1041,-0.1376,-0.1377,-0.1378,-0.138,0,-0.1436,-0.147,-0.1475,-0.1487,-0.1523,-0.151,-0.1524,-0.1551,-0.1552,-0.1575,-0.1573,-0.1557,-0.1544,-0.1507,-0.1479,-0.1521,-0.1374,-0.1423,-0.1257,-0.1245,-0.1147,-0.1129,-0.1356,-0.1356,-0.1356,-0.1357,-0.1358,0,-0.1418,-0.1419,-0.1455,-0.1458,-0.1445,-0.1479,-0.1482,-0.1476,-0.1489,-0.1471,-0.1536,-0.1487,-0.1528,-0.1462,-0.143,-0.1276,-0.1315,-0.1234,-0.1191,-0.1136,-0.112,-0.1392,-0.1399,-0.1349,-0.1351,-0.1352,-0.1354,0,-0.1368,-0.1402,-0.1394,-0.1418,-0.1427,-0.141,-0.1432,-0.1426,-0.1449,-0.1412,-0.1415,-0.1427,-0.134,-0.1313,-0.1245,-0.1192,-0.1086,-0.1014,-0.0909,-0.0859,-0.0976,-0.0985,-0.0816,-0.0811,-0.0806,-0.0803,-0.08,0,-0.1346,-0.1345,-0.1349,-0.1337,-0.1354,-0.1355,-0.1349,-0.138,-0.1371,-0.1338,-0.1289,-0.1248,-0.115,-0.0974,-0.0913,-0.077,-0.0886,-0.062,-0.0724,-0.0948,-0.0924,-0.0941,-0.0956,-0.0556,-0.0551,-0.0547,-0.0544,0,-0.1287,-0.1294,-0.1279,-0.1256,-0.1251,-0.1237,-0.1232,-0.1214,-0.1223,-0.1187,-0.1076,-0.1007,-0.0855,-0.069,-0.0556,-0.0489,-0.0655,-0.0534,-0.0778,-0.0725,-0.0692,-0.0672,-0.0698,-0.0509,-0.0512,-0.0515,-0.0517,-0.0518,-0.1226,-0.1194,-0.1176,-0.1145,-0.1139,-0.1096,-0.1047,-0.1038,-0.0979,-0.0876,-0.0854,-0.0688,-0.0626,-0.0371,-0.0292,-0.0273,-0.0344,-0.0347,-0.0364,-0.0384,-0.0412,-0.0376,-0.0133,-0.0134,-0.0135,-0.0136,-0.0137,0,-0.1123,-0.1098,-0.1066,-0.1014,-0.0963,-0.0997,-0.0946,-0.0875,-0.0763,-0.0676,-0.0556,-0.037,-0.0204,-0.0171,-0.0059,-0.0023,-0.0097,-0.0044,-0.0144,-0.0175,-0.0203,-0.0231,0.0103,0.0103,0.0103,0.0103,0,0,-0.1063,-0.0993,-0.0974,-0.0855,-0.0824,-0.0722,-0.0667,-0.0577,-0.0499,-0.0349,-0.0244,-0.0162,-0.0117,-0.0002,0.0037,0.0087,-0.0069,0.0082,-0.0096,-0.0243,-0.0273,-0.0343,-0.0413,0,0,0,0,0]},{"header":{"parameterUnit":"m.s-1","parameterCategory":2,"la1":30.2991,"la2":30.254,"lo1":-89.0895,"lo2":-89.0444,"dy":0.0017,"dx":0.0017,"nx":28,"ny":28,"refTime":"2025-02-24T03:00:00:Z","depth":"2","parameterNumber":3,"parameterNumberName":"V-component_of_CURRENTS"},"data":[0,0,0,0,0,0,0,0,0,0,0,0,0,0,0,0,0,0,0,0,0,0,0,0,0,0,0,0,0,0,0,0,0,0,0,0,0,0,0,0,0,0,0,0,0,0,0,0,0,0,0,0,0,0,0,0,0,0,-0.0364,-0.0364,0,-0.0346,-0.0346,-0.0345,-0.0296,-0.0295,-0.0295,-0.0294,-0.0146,-0.0143,-0.014,0,0,0,0,0,0,0,0,0,0,0,0,0,-0.0331,-0.0332,-0.0364,-0.0364,-0.0364,-0.0346,-0.0346,-0.0345,-0.0296,-0.0295,-0.0294,-0.0294,-0.0147,-0.0143,-0.0139,0,0,0,0,0,0,0,0,0,0,0,0,0,-0.033,-0.0332,-0.0364,-0.034,-0.0338,-0.0346,-0.0346,-0.0345,-0.0297,-0.0295,-0.0294,-0.0293,-0.0148,-0.0143,-0.0139,-0.0133,0,0,-0.0124,-0.0122,0,0,0,0,0,0,0,0,-0.033,-0.0331,-0.0343,-0.0342,-0.0339,-0.0325,-0.028,-0.0269,-0.0297,-0.0309,-0.0294,-0.0293,-0.0196,-0.0188,-0.0185,-0.0126,-0.012,-0.0124,-0.0121,-0.0119,-0.0117,0,0,0,0,0,0,0,-0.033,-0.0331,-0.0354,-0.0344,-0.0341,-0.0322,-0.032,-0.0278,-0.0255,-0.0308,-0.0305,-0.0308,-0.0194,-0.019,-0.018,-0.0118,-0.0124,-0.0119,-0.0117,-0.0115,-0.0018,-0.0018,0,0,0,0,0,0,-0.0341,-0.0332,-0.0355,-0.0354,-0.0335,-0.0323,-0.0322,-0.0328,-0.0258,-0.0248,-0.0309,-0.0306,-0.0198,-0.0186,-0.0175,-0.0135,-0.0119,-0.0114,-0.0111,-0.0018,-0.0018,-0.0018,0,0,0,0,0,0,-0.0341,-0.0344,-0.0356,-0.0344,-0.0345,-0.0326,-0.0333,-0.0329,-0.0323,-0.0261,-0.0248,-0.0308,-0.0197,-0.0182,-0.0138,-0.013,-0.0112,-0.0108,-0.0017,-0.0018,-0.0018,-0.0073,0,0,0,0,0,0,-0.034,-0.0344,-0.035,-0.0345,-0.0346,-0.0367,-0.0335,-0.0329,-0.0328,-0.0323,-0.0256,-0.0241,-0.0195,-0.0146,-0.0133,-0.0123,-0.0104,-0.0017,-0.0018,-0.0018,-0.0071,-0.0076,-0.0079,0,0,0,0,0,-0.0339,-0.0358,-0.0351,-0.0353,-0.0356,-0.0368,-0.0367,-0.0346,-0.0329,-0.0334,-0.0285,-0.0243,-0.014,-0.0142,-0.0127,-0.0115,-0.0017,-0.0017,-0.0018,-0.0069,-0.0075,-0.0079,0,0,0,0,0,0,-0.0347,-0.0356,-0.0347,-0.0367,-0.0369,-0.0361,-0.0368,-0.0354,-0.0323,-0.0313,-0.0248,-0.023,-0.0183,-0.0151,-0.0155,-0.0091,-0.0071,-0.0069,-0.0115,-0.012,-0.0124,-0.013,-0.01,0,0,0,0,0,-0.0354,-0.037,-0.0372,-0.0388,-0.0393,-0.0381,-0.0382,-0.0372,-0.0348,-0.0334,-0.029,-0.0236,-0.0178,-0.0151,-0.0102,-0.0074,-0.002,-0.0058,-0.0062,-0.0066,-0.0062,0.004,0.0046,-0.0021,-0.0021,-0.0021,0,0,-0.036,-0.0369,-0.0376,-0.0391,-0.039,-0.0407,-0.0378,-0.039,-0.0389,-0.032,-0.0303,-0.0246,-0.0173,-0.0133,-0.011,-0.0104,-0.0026,-0.0067,-0.007,-0.0064,0.004,0.0047,0.0053,-0.0021,-0.0021,-0.0021,0,0,-0.0392,-0.0392,-0.0419,-0.0426,-0.0437,-0.0431,-0.0437,-0.0434,-0.0415,-0.04,-0.0334,-0.0275,-0.0222,-0.0153,-0.0112,-0.0112,-0.0046,-0.0105,-0.0133,-0.0034,-0.0027,-0.002,0.0026,0.0037,-0.0113,-0.0113,-0.0113,0,-0.0397,-0.0431,-0.0427,-0.0456,-0.0463,-0.0445,-0.0469,-0.0455,-0.0435,-0.0404,-0.0403,-0.0286,-0.0224,-0.014,-0.014,-0.0117,-0.0072,-0.0119,-0.0038,-0.0029,-0.0021,0.0025,0.0038,-0.0116,-0.0116,-0.0115,-0.0115,0,-0.045,-0.0474,-0.0492,-0.0519,-0.0524,-0.0546,-0.0529,-0.0516,-0.0495,-0.0467,-0.0397,-0.0323,-0.0243,-0.0221,-0.0179,-0.0093,-0.0085,-0.0048,-0.0023,-0.0018,0.003,0.0045,-0.012,-0.0119,-0.0118,-0.0117,0,0,-0.0467,-0.0519,-0.0525,-0.054,-0.0558,-0.0565,-0.0557,-0.0531,-0.051,-0.0477,-0.0432,-0.0337,-0.0289,-0.0239,-0.0175,-0.0104,-0.0015,-0.0066,-0.0059,-0.0019,0.0167,0.0107,0.0117,0.0039,0.0042,0.0045,0.0166,0,-0.0507,-0.0571,-0.0582,-0.0622,-0.0646,-0.062,-0.0612,-0.0577,-0.0544,-0.0498,-0.04,-0.0345,-0.0297,-0.0263,-0.0174,-0.004,0.0027,-0.0054,0.0154,0.016,0.0109,0.0135,0.0102,0.0202,0.0181,0.0183,0.0185,0,-0.0553,-0.0587,-0.0645,-0.0659,-0.0665,-0.0685,-0.0649,-0.0636,-0.0556,-0.052,-0.0442,-0.0382,-0.0258,-0.0234,-0.0008,-0.0063,0.0046,0.013,0.0138,0.0116,0.0129,0.02,0.0231,0.0211,0.0209,0.0207,0.0206,0,-0.0566,-0.0622,-0.0668,-0.068,-0.07,-0.0701,-0.0694,-0.0641,-0.061,-0.0536,-0.0507,-0.0369,-0.0294,-0.0131,0.0033,0.0027,0.026,0.0286,0.0325,0.0321,0.0351,0.0344,0.0441,0.0441,0.0441,0.044,0.044,0,-0.0604,-0.0636,-0.0682,-0.0708,-0.0729,-0.0728,-0.0729,-0.0691,-0.0637,-0.0588,-0.0517,-0.0452,-0.0262,-0.0119,0.0035,0.0219,0.0278,0.0326,0.0361,0.0323,0.0312,0.0373,0.0363,0.0445,0.0444,0.0443,0.0442,0,-0.0622,-0.066,-0.0701,-0.0734,-0.0745,-0.0753,-0.0755,-0.0741,-0.0696,-0.0629,-0.0607,-0.0481,-0.0309,-0.0146,0.0111,0.0211,0.0392,0.0438,0.0341,0.0361,0.0382,0.0368,0.0505,0.0504,0.0503,0.0503,0.0502,0,-0.0643,-0.0677,-0.0718,-0.0734,-0.076,-0.078,-0.0785,-0.0761,-0.0736,-0.0633,-0.0585,-0.0458,-0.0324,-0.0029,0.0138,0.0353,0.0391,0.0429,0.0416,0.0374,0.0395,0.0382,0.0369,0.0432,0.0431,0.043,0.0429,0,-0.0673,-0.069,-0.0719,-0.0751,-0.0777,-0.0788,-0.0792,-0.0777,-0.0722,-0.0659,-0.053,-0.043,-0.0219,-0.0018,0.0177,0.0305,0.0385,0.0414,0.0462,0.0391,0.0308,0.0326,0.0317,0.0422,0.0423,0.0423,0.0424,0.0424,-0.0681,-0.0702,-0.0739,-0.0762,-0.0782,-0.0776,-0.0763,-0.0737,-0.0676,-0.054,-0.0469,-0.0279,-0.0166,0.0131,0.0232,0.0312,0.0345,0.0402,0.0405,0.0409,0.0349,0.0267,0.036,0.036,0.0361,0.0361,0.0361,0,-0.0684,-0.0717,-0.0746,-0.0765,-0.0768,-0.0781,-0.0749,-0.0699,-0.0604,-0.0472,-0.0335,-0.0142,0.0025,0.0143,0.025,0.031,0.0316,0.032,0.0329,0.0336,0.0343,0.028,0.0273,0.0272,0.0272,0.0272,0,0,-0.0689,-0.0725,-0.0744,-0.0753,-0.0758,-0.0731,-0.0698,-0.06,-0.049,-0.0321,-0.0177,-0.0022,0.0091,0.0159,0.0201,0.0239,0.0272,0.0235,0.0302,0.0312,0.0317,0.0387,0.0296,0,0,0,0,0]}],[{"header":{"parameterUnit":"m.s-1","parameterCategory":2,"la1":30.2991,"la2":30.254,"lo1":-89.0895,"lo2":-89.0444,"dy":0.0017,"dx":0.0017,"nx":28,"ny":28,"refTime":"2025-02-24T03:00:00:Z","depth":"4","parameterNumber":2,"parameterNumberName":"U-component_of_CURRENTS"},"data":[0,0,0,0,0,0,0,0,0,0,0,0,0,0,0,0,0,0,0,0,0,0,0,0,0,0,0,0,0,0,0,0,0,0,0,0,0,0,0,0,0,0,0,0,0,0,0,0,0,0,0,0,0,0,0,0,0,0,-0.0865,-0.0864,0,-0.0856,-0.0856,-0.0856,-0.0849,-0.0849,-0.0848,-0.0848,-0.085,-0.085,-0.0851,0,0,0,0,0,0,0,0,0,0,0,0,0,-0.0887,-0.0887,-0.0865,-0.0864,-0.0864,-0.0856,-0.0856,-0.0856,-0.0849,-0.0849,-0.0848,-0.0848,-0.085,-0.085,-0.0851,0,0,0,0,0,0,0,0,0,0,0,0,0,-0.0879,-0.0887,-0.0865,-0.0858,-0.0858,-0.0856,-0.0856,-0.0856,-0.0849,-0.0849,-0.0848,-0.0848,-0.085,-0.085,-0.0851,-0.086,0,0,-0.0852,-0.0852,0,0,0,0,0,0,0,0,-0.088,-0.0879,-0.086,-0.0859,-0.0858,-0.0852,-0.0865,-0.0857,-0.0849,-0.0854,-0.0848,-0.0848,-0.0851,-0.0851,-0.0852,-0.086,-0.086,-0.0852,-0.0852,-0.0852,-0.0852,0,0,0,0,0,0,0,-0.088,-0.0879,-0.0863,-0.0859,-0.0858,-0.086,-0.0859,-0.0864,-0.0856,-0.0853,-0.0852,-0.0849,-0.0851,-0.0852,-0.0852,-0.086,-0.0852,-0.0852,-0.0852,-0.0853,-0.0856,-0.0856,0,0,0,0,0,0,-0.0878,-0.0879,-0.0863,-0.0862,-0.0867,-0.086,-0.0859,-0.0855,-0.0855,-0.0855,-0.085,-0.0849,-0.0852,-0.0852,-0.0852,-0.086,-0.0852,-0.0853,-0.0853,-0.0856,-0.0856,-0.0856,0,0,0,0,0,0,-0.0878,-0.0877,-0.0863,-0.087,-0.0868,-0.086,-0.0857,-0.0855,-0.0868,-0.0852,-0.0852,-0.0864,-0.0851,-0.0852,-0.0853,-0.086,-0.0853,-0.0853,-0.0856,-0.0856,-0.0856,-0.0878,0,0,0,0,0,0,-0.0879,-0.0877,-0.0885,-0.0869,-0.0867,-0.0866,-0.0857,-0.0855,-0.0865,-0.0865,-0.0865,-0.0864,-0.0851,-0.0852,-0.0853,-0.0861,-0.0853,-0.0856,-0.0856,-0.0856,-0.0877,-0.0878,-0.0879,0,0,0,0,0,-0.088,-0.0879,-0.0885,-0.0883,-0.0875,-0.0866,-0.0865,-0.0859,-0.0866,-0.0871,-0.0865,-0.0864,-0.0851,-0.0853,-0.0854,-0.0861,-0.0856,-0.0856,-0.0856,-0.0877,-0.0878,-0.0879,0,0,0,0,0,0,-0.0893,-0.0878,-0.0884,-0.088,-0.0879,-0.0864,-0.0864,-0.0871,-0.0873,-0.0875,-0.0867,-0.0865,-0.0869,-0.0861,-0.0863,-0.0859,-0.0853,-0.0852,-0.0868,-0.0869,-0.087,-0.086,-0.0854,0,0,0,0,0,-0.0901,-0.0898,-0.0888,-0.0889,-0.0885,-0.0884,-0.0885,-0.0885,-0.0879,-0.0881,-0.0883,-0.0877,-0.0867,-0.0866,-0.086,-0.0863,-0.0843,-0.0866,-0.0867,-0.0868,-0.0859,-0.0827,-0.0825,-0.0854,-0.0854,-0.0854,0,0,-0.0911,-0.0899,-0.0902,-0.0893,-0.0888,-0.0884,-0.0883,-0.0885,-0.0883,-0.0881,-0.0886,-0.0888,-0.087,-0.0866,-0.0867,-0.0861,-0.0851,-0.0868,-0.0869,-0.0859,-0.0827,-0.0824,-0.0821,-0.0854,-0.0854,-0.0854,0,0,-0.0911,-0.0914,-0.0907,-0.0905,-0.09,-0.0896,-0.0902,-0.0901,-0.0899,-0.0906,-0.0898,-0.0902,-0.09,-0.0882,-0.0871,-0.0876,-0.0861,-0.0881,-0.0876,-0.0846,-0.0843,-0.084,-0.082,-0.0815,-0.0877,-0.0877,-0.0877,0,-0.0927,-0.0909,-0.0907,-0.0897,-0.0892,-0.0903,-0.0896,-0.0896,-0.0902,-0.0895,-0.0908,-0.0898,-0.09,-0.0873,-0.0877,-0.0879,-0.086,-0.0876,-0.0847,-0.0844,-0.0841,-0.0821,-0.0815,-0.0878,-0.0878,-0.0878,-0.0878,0,-0.0912,-0.0909,-0.0901,-0.0891,-0.0892,-0.0888,-0.0884,-0.0893,-0.0903,-0.0901,-0.0895,-0.0894,-0.0885,-0.0891,-0.0888,-0.0867,-0.0861,-0.0857,-0.0845,-0.0839,-0.0818,-0.0812,-0.088,-0.088,-0.0879,-0.0879,0,0,-0.0917,-0.0894,-0.0895,-0.0885,-0.0887,-0.088,-0.088,-0.0869,-0.0864,-0.0878,-0.0865,-0.0864,-0.0876,-0.0864,-0.0866,-0.0846,-0.0826,-0.0846,-0.0844,-0.0828,-0.0762,-0.0689,-0.0676,-0.0815,-0.0814,-0.0813,-0.0761,0,-0.0905,-0.0878,-0.0874,-0.0864,-0.0849,-0.0859,-0.0852,-0.0853,-0.0857,-0.0854,-0.0846,-0.0843,-0.0858,-0.0865,-0.0846,-0.0831,-0.0808,-0.084,-0.0768,-0.0766,-0.0703,-0.0665,-0.0809,-0.0756,-0.0755,-0.0754,-0.0753,0,-0.0884,-0.0867,-0.0848,-0.0831,-0.0826,-0.0831,-0.0822,-0.0818,-0.0815,-0.082,-0.0819,-0.0823,-0.0808,-0.0825,-0.0776,-0.0795,-0.0781,-0.0766,-0.0763,-0.0678,-0.068,-0.076,-0.0742,-0.0742,-0.0743,-0.0744,-0.0745,0,-0.0861,-0.0845,-0.0825,-0.0823,-0.0814,-0.0812,-0.0811,-0.0811,-0.0797,-0.0805,-0.0805,-0.0789,-0.0782,-0.0755,-0.0737,-0.0757,-0.0675,-0.0697,-0.0612,-0.0608,-0.0684,-0.0687,-0.0651,-0.0652,-0.0652,-0.0652,-0.0652,0,-0.0827,-0.0817,-0.0817,-0.0805,-0.079,-0.0795,-0.0783,-0.0785,-0.0782,-0.0757,-0.0788,-0.0759,-0.0764,-0.0724,-0.0714,-0.0629,-0.0652,-0.0592,-0.0577,-0.0696,-0.0701,-0.068,-0.0684,-0.065,-0.065,-0.0651,-0.0651,0,-0.0798,-0.0797,-0.0776,-0.0771,-0.0776,-0.0765,-0.0763,-0.0746,-0.0761,-0.0732,-0.0734,-0.0727,-0.0668,-0.0654,-0.0605,-0.0582,-0.0525,-0.0493,-0.0616,-0.0612,-0.0491,-0.0497,-0.0392,-0.0389,-0.0386,-0.0383,-0.0381,0,-0.0777,-0.0763,-0.0753,-0.0743,-0.0742,-0.0737,-0.0727,-0.0736,-0.0717,-0.0692,-0.0665,-0.0622,-0.0608,-0.0471,-0.0477,-0.0424,-0.0422,-0.0406,-0.0453,-0.0462,-0.0459,-0.0469,-0.0478,-0.0377,-0.0376,-0.0376,-0.0375,0,-0.074,-0.0741,-0.0717,-0.0699,-0.069,-0.0667,-0.0656,-0.0639,-0.0633,-0.0654,-0.0565,-0.052,-0.0445,-0.0404,-0.036,-0.0332,-0.0424,-0.0377,-0.0384,-0.0428,-0.0443,-0.0445,-0.0457,-0.0365,-0.0367,-0.0367,-0.0368,0,-0.0716,-0.0691,-0.0667,-0.0638,-0.0629,-0.059,-0.0591,-0.0549,-0.053,-0.0515,-0.0476,-0.043,-0.0422,-0.0351,-0.0309,-0.027,-0.0274,-0.0284,-0.0295,-0.0306,-0.0301,-0.031,-0.0155,0,0,0,0,0,-0.0687,-0.0643,-0.061,-0.0564,-0.0551,-0.0544,-0.0535,-0.0538,-0.0545,-0.0458,-0.0464,-0.0389,-0.0307,-0.0289,-0.0228,-0.0279,-0.0288,-0.0209,-0.0309,-0.0311,-0.0323,-0.0325,0,0,0,0,0,0,-0.0658,-0.063,-0.0588,-0.0512,-0.0474,-0.0449,-0.044,-0.0441,-0.0398,-0.0407,-0.0359,-0.0363,-0.029,-0.0325,-0.0218,-0.0213,-0.0266,-0.0189,-0.0188,-0.0305,-0.0315,-0.0324,-0.033,0,0,0,0,0]},{"header":{"parameterUnit":"m.s-1","parameterCategory":2,"la1":30.2991,"la2":30.254,"lo1":-89.0895,"lo2":-89.0444,"dy":0.0017,"dx":0.0017,"nx":28,"ny":28,"refTime":"2025-02-24T03:00:00:Z","depth":"4","parameterNumber":3,"parameterNumberName":"V-component_of_CURRENTS"},"data":[0,0,0,0,0,0,0,0,0,0,0,0,0,0,0,0,0,0,0,0,0,0,0,0,0,0,0,0,0,0,0,0,0,0,0,0,0,0,0,0,0,0,0,0,0,0,0,0,0,0,0,0,0,0,0,0,0,0,-0.0211,-0.0211,0,-0.023,-0.023,-0.023,-0.0224,-0.0224,-0.0223,-0.0223,-0.0171,-0.017,-0.0169,0,0,0,0,0,0,0,0,0,0,0,0,0,-0.0179,-0.0179,-0.0211,-0.0211,-0.0211,-0.023,-0.023,-0.023,-0.0224,-0.0224,-0.0223,-0.0223,-0.0171,-0.017,-0.0168,0,0,0,0,0,0,0,0,0,0,0,0,0,-0.0194,-0.018,-0.0211,-0.0211,-0.0211,-0.0229,-0.023,-0.023,-0.0224,-0.0224,-0.0223,-0.0223,-0.0171,-0.017,-0.0168,-0.017,0,0,-0.0163,-0.0163,0,0,0,0,0,0,0,0,-0.0194,-0.0196,-0.0211,-0.0211,-0.0211,-0.0224,-0.0199,-0.0206,-0.0225,-0.0219,-0.0223,-0.0222,-0.0182,-0.018,-0.0185,-0.0167,-0.0165,-0.0163,-0.0162,-0.0162,-0.0161,0,0,0,0,0,0,0,-0.0192,-0.0195,-0.0218,-0.0211,-0.0211,-0.0213,-0.0214,-0.0201,-0.0202,-0.022,-0.0219,-0.0222,-0.0182,-0.0187,-0.0184,-0.0164,-0.0163,-0.0162,-0.0161,-0.016,-0.0117,-0.0116,0,0,0,0,0,0,-0.0191,-0.0194,-0.0217,-0.0219,-0.0201,-0.0214,-0.0216,-0.022,-0.0204,-0.0201,-0.0222,-0.0222,-0.019,-0.0186,-0.0182,-0.0169,-0.0162,-0.016,-0.0159,-0.0117,-0.0117,-0.0116,0,0,0,0,0,0,-0.019,-0.0193,-0.0217,-0.0207,-0.021,-0.0215,-0.0221,-0.0221,-0.0228,-0.0207,-0.0203,-0.0229,-0.0189,-0.0184,-0.017,-0.0167,-0.0159,-0.0158,-0.0117,-0.0117,-0.0117,-0.015,0,0,0,0,0,0,-0.0189,-0.0193,-0.0198,-0.0207,-0.021,-0.0233,-0.0221,-0.0222,-0.0231,-0.023,-0.0211,-0.0206,-0.0189,-0.0173,-0.0169,-0.0164,-0.0157,-0.0117,-0.0117,-0.0117,-0.0149,-0.0151,-0.0153,0,0,0,0,0,-0.0188,-0.0199,-0.0199,-0.0202,-0.0217,-0.0234,-0.0236,-0.0237,-0.0232,-0.024,-0.0222,-0.0206,-0.0167,-0.0172,-0.0167,-0.0162,-0.0118,-0.0117,-0.0117,-0.0149,-0.0151,-0.0153,0,0,0,0,0,0,-0.0189,-0.02,-0.0199,-0.0213,-0.0224,-0.0233,-0.0242,-0.0242,-0.0238,-0.0234,-0.021,-0.0203,-0.0186,-0.0171,-0.0177,-0.0147,-0.0137,-0.0136,-0.0163,-0.0165,-0.0166,-0.017,-0.0155,0,0,0,0,0,-0.0192,-0.0203,-0.0213,-0.0225,-0.0231,-0.0238,-0.0245,-0.0247,-0.0244,-0.0243,-0.0231,-0.0208,-0.0181,-0.0172,-0.0152,-0.0142,-0.0118,-0.0133,-0.0135,-0.0136,-0.0135,-0.0088,-0.0085,-0.0115,-0.0115,-0.0115,0,0,-0.0196,-0.0203,-0.0209,-0.0226,-0.0234,-0.0248,-0.0241,-0.0257,-0.026,-0.0236,-0.0238,-0.0216,-0.0179,-0.0165,-0.0155,-0.0152,-0.0119,-0.0136,-0.0137,-0.0135,-0.0087,-0.0084,-0.0081,-0.0115,-0.0115,-0.0115,0,0,-0.0211,-0.0216,-0.0231,-0.0243,-0.0259,-0.0262,-0.0267,-0.028,-0.0277,-0.028,-0.025,-0.023,-0.021,-0.0179,-0.0158,-0.0157,-0.0127,-0.0148,-0.0162,-0.0116,-0.0113,-0.011,-0.0094,-0.0089,-0.0151,-0.0151,-0.0151,0,-0.0215,-0.0233,-0.0239,-0.0258,-0.0266,-0.0268,-0.0284,-0.0283,-0.0289,-0.0276,-0.0284,-0.0235,-0.0214,-0.0168,-0.017,-0.016,-0.0138,-0.016,-0.0119,-0.0115,-0.0111,-0.0095,-0.009,-0.0153,-0.0153,-0.0152,-0.0152,0,-0.0241,-0.0257,-0.0268,-0.0287,-0.0297,-0.0313,-0.0313,-0.0314,-0.0312,-0.0304,-0.0275,-0.0253,-0.0219,-0.0209,-0.0193,-0.0151,-0.0146,-0.0125,-0.0116,-0.011,-0.0094,-0.0088,-0.0155,-0.0154,-0.0154,-0.0154,0,0,-0.0246,-0.0278,-0.0283,-0.0292,-0.0312,-0.0321,-0.0322,-0.0313,-0.0298,-0.0302,-0.0278,-0.0247,-0.0234,-0.0209,-0.0182,-0.0153,-0.0122,-0.0136,-0.0132,-0.0125,-0.0038,-0.006,-0.0056,-0.009,-0.0089,-0.0088,-0.0044,0,-0.0264,-0.0297,-0.0308,-0.0332,-0.0345,-0.0342,-0.0339,-0.0329,-0.0316,-0.0294,-0.0259,-0.0233,-0.0231,-0.0216,-0.0185,-0.0129,-0.0103,-0.0137,-0.004,-0.0038,-0.0061,-0.0048,-0.0083,-0.0039,-0.0037,-0.0036,-0.0035,0,-0.0286,-0.0303,-0.0333,-0.0342,-0.0347,-0.0361,-0.0343,-0.0338,-0.03,-0.0289,-0.0259,-0.0231,-0.0189,-0.0189,-0.0107,-0.0128,-0.0089,-0.0055,-0.0052,-0.0054,-0.0047,-0.0039,-0.0023,-0.0024,-0.0025,-0.0026,-0.0026,0,-0.0285,-0.0315,-0.0335,-0.0345,-0.036,-0.0363,-0.0362,-0.0337,-0.0321,-0.0283,-0.027,-0.0215,-0.0187,-0.013,-0.0079,-0.0084,0.001,0.0018,0.0032,0.003,0.0051,0.0048,0.0081,0.0081,0.0081,0.0081,0.0081,0,-0.0295,-0.0312,-0.0339,-0.0352,-0.0362,-0.0369,-0.0364,-0.0351,-0.0325,-0.0298,-0.0268,-0.0237,-0.0167,-0.011,-0.0067,-0.0006,0.0021,0.0031,0.0047,0.0032,0.0027,0.0054,0.005,0.0083,0.0082,0.0082,0.0082,0,-0.0298,-0.0318,-0.0339,-0.0359,-0.0367,-0.0373,-0.0378,-0.0365,-0.0346,-0.0311,-0.0301,-0.024,-0.017,-0.0108,-0.0009,0.0009,0.0071,0.0088,0.0048,0.0061,0.0053,0.0047,0.0107,0.0107,0.0106,0.0106,0.0106,0,-0.0307,-0.0322,-0.0346,-0.0357,-0.0373,-0.0384,-0.0389,-0.0379,-0.0362,-0.0311,-0.0289,-0.0219,-0.0176,-0.0055,-0.0002,0.0074,0.0084,0.0101,0.0088,0.005,0.006,0.0054,0.0048,0.0106,0.0106,0.0106,0.0106,0,-0.0322,-0.0331,-0.0343,-0.0363,-0.038,-0.0384,-0.0389,-0.0379,-0.0352,-0.0337,-0.0259,-0.0202,-0.0122,-0.0044,0.0013,0.0067,0.008,0.0099,0.0099,0.0088,0.0049,0.0058,0.0053,0.0105,0.0105,0.0105,0.0105,0,-0.0331,-0.034,-0.0357,-0.037,-0.0381,-0.0379,-0.0381,-0.0355,-0.0335,-0.0279,-0.0252,-0.0172,-0.012,-0.0048,0.0005,0.0051,0.006,0.0063,0.0066,0.0067,0.0035,-0.0021,0.0032,0,0,0,0,0,-0.0345,-0.0358,-0.0366,-0.0375,-0.0375,-0.0387,-0.0376,-0.0371,-0.035,-0.029,-0.0266,-0.019,-0.0102,-0.0061,-0.0014,-0.0019,0.0049,0.0033,0.005,0.0101,0.0102,0.0068,0,0,0,0,0,0,-0.0354,-0.0372,-0.037,-0.0372,-0.0379,-0.0382,-0.0379,-0.0364,-0.032,-0.0288,-0.0228,-0.0201,-0.0106,-0.0125,-0.0019,-0.0007,0.0004,0.0077,0.0077,0.01,0.0101,0.0102,0.0067,0,0,0,0,0]}]]